Year,Month,Day,Hour,Minute,Value (Times are PST for temperature in C)
2010,08,30,00,00,8.20
2010,08,30,00,01,8.20
2010,08,30,00,02,8.20
2010,08,30,00,03,8.20
2010,08,30,00,04,8.20
2010,08,30,00,05,8.10
2010,08,30,00,06,8.10
2010,08,30,00,07,8.10
2010,08,30,00,08,8.10
2010,08,30,00,09,8.00
2010,08,30,00,10,8.00
2010,08,30,00,11,8.00
2010,08,30,00,12,7.90
2010,08,30,00,13,7.90
2010,08,30,00,14,7.90
2010,08,30,00,15,7.90
2010,08,30,00,16,7.90
2010,08,30,00,17,7.90
2010,08,30,00,18,7.90
2010,08,30,00,19,7.90
2010,08,30,00,20,7.90
2010,08,30,00,21,7.80
2010,08,30,00,22,7.80
2010,08,30,00,23,7.80
2010,08,30,00,24,7.80
2010,08,30,00,25,7.80
2010,08,30,00,26,7.80
2010,08,30,00,27,7.70
2010,08,30,00,28,7.70
2010,08,30,00,29,7.70
2010,08,30,00,30,7.70
2010,08,30,00,31,7.70
2010,08,30,00,32,7.70
2010,08,30,00,33,7.80
2010,08,30,00,34,7.80
2010,08,30,00,35,7.80
2010,08,30,00,36,7.80
2010,08,30,00,37,7.80
2010,08,30,00,38,7.80
2010,08,30,00,39,7.80
2010,08,30,00,40,7.80
2010,08,30,00,41,7.80
2010,08,30,00,42,7.70
2010,08,30,00,43,7.70
2010,08,30,00,44,7.70
2010,08,30,00,45,7.70
2010,08,30,00,46,7.60
2010,08,30,00,47,7.60
2010,08,30,00,48,7.60
2010,08,30,00,49,7.50
2010,08,30,00,50,7.50
2010,08,30,00,51,7.50
2010,08,30,00,52,7.40
2010,08,30,00,53,7.40
2010,08,30,00,54,7.40
2010,08,30,00,55,7.40
2010,08,30,00,56,7.40
2010,08,30,00,57,7.30
2010,08,30,00,58,7.30
2010,08,30,00,59,7.30
2010,08,30,01,00,7.30
2010,08,30,01,01,7.30
2010,08,30,01,02,7.20
2010,08,30,01,03,7.20
2010,08,30,01,04,7.20
2010,08,30,01,05,7.20
2010,08,30,01,06,7.20
2010,08,30,01,07,7.20
2010,08,30,01,08,7.30
2010,08,30,01,09,7.30
2010,08,30,01,10,7.30
2010,08,30,01,11,7.30
2010,08,30,01,12,7.30
2010,08,30,01,13,7.30
2010,08,30,01,14,7.30
2010,08,30,01,15,7.30
2010,08,30,01,16,7.30
2010,08,30,01,17,7.30
2010,08,30,01,18,7.30
2010,08,30,01,19,7.30
2010,08,30,01,20,7.20
2010,08,30,01,21,7.30
2010,08,30,01,22,7.30
2010,08,30,01,23,7.30
2010,08,30,01,24,7.30
2010,08,30,01,25,7.30
2010,08,30,01,26,7.40
2010,08,30,01,27,7.40
2010,08,30,01,28,7.40
2010,08,30,01,29,7.40
2010,08,30,01,30,7.40
2010,08,30,01,31,7.40
2010,08,30,01,32,7.40
2010,08,30,01,33,7.40
2010,08,30,01,34,7.50
2010,08,30,01,35,7.50
2010,08,30,01,36,7.40
2010,08,30,01,37,7.40
2010,08,30,01,38,7.40
2010,08,30,01,39,7.40
2010,08,30,01,40,7.40
2010,08,30,01,41,7.40
2010,08,30,01,42,7.40
2010,08,30,01,43,7.40
2010,08,30,01,44,7.40
2010,08,30,01,45,7.30
2010,08,30,01,46,7.30
2010,08,30,01,47,7.20
2010,08,30,01,48,7.20
2010,08,30,01,49,7.20
2010,08,30,01,50,7.20
2010,08,30,01,51,7.20
2010,08,30,01,52,7.20
2010,08,30,01,53,7.20
2010,08,30,01,54,7.20
2010,08,30,01,55,7.20
2010,08,30,01,56,7.20
2010,08,30,01,57,7.20
2010,08,30,01,58,7.10
2010,08,30,01,59,7.10
2010,08,30,02,00,7.10
2010,08,30,02,01,7.10
2010,08,30,02,02,7.10
2010,08,30,02,03,7.00
2010,08,30,02,04,7.00
2010,08,30,02,05,7.00
2010,08,30,02,06,7.00
2010,08,30,02,07,6.90
2010,08,30,02,08,6.90
2010,08,30,02,09,6.90
2010,08,30,02,10,6.90
2010,08,30,02,11,6.90
2010,08,30,02,12,6.90
2010,08,30,02,13,6.90
2010,08,30,02,14,6.90
2010,08,30,02,15,6.90
2010,08,30,02,16,6.90
2010,08,30,02,17,6.90
2010,08,30,02,18,6.90
2010,08,30,02,19,6.90
2010,08,30,02,20,6.90
2010,08,30,02,21,6.90
2010,08,30,02,22,6.90
2010,08,30,02,23,6.90
2010,08,30,02,24,6.90
2010,08,30,02,25,6.90
2010,08,30,02,26,6.90
2010,08,30,02,27,6.90
2010,08,30,02,28,6.90
2010,08,30,02,29,6.90
2010,08,30,02,30,6.90
2010,08,30,02,31,7.00
2010,08,30,02,32,6.90
2010,08,30,02,33,6.90
2010,08,30,02,34,6.90
2010,08,30,02,35,6.90
2010,08,30,02,36,6.90
2010,08,30,02,37,6.90
2010,08,30,02,38,6.90
2010,08,30,02,39,6.90
2010,08,30,02,40,6.90
2010,08,30,02,41,6.90
2010,08,30,02,42,6.90
2010,08,30,02,43,6.90
2010,08,30,02,44,6.80
2010,08,30,02,45,6.80
2010,08,30,02,46,6.80
2010,08,30,02,47,6.80
2010,08,30,02,48,6.80
2010,08,30,02,49,6.80
2010,08,30,02,50,6.80
2010,08,30,02,51,6.80
2010,08,30,02,52,6.80
2010,08,30,02,53,6.80
2010,08,30,02,54,6.80
2010,08,30,02,55,6.80
2010,08,30,02,56,6.80
2010,08,30,02,57,6.80
2010,08,30,02,58,6.80
2010,08,30,02,59,6.80
2010,08,30,03,00,6.80
2010,08,30,03,01,6.80
2010,08,30,03,02,6.80
2010,08,30,03,06,6.80
2010,08,30,03,07,6.80
2010,08,30,03,08,6.80
2010,08,30,03,09,6.80
2010,08,30,03,10,6.80
2010,08,30,03,11,6.80
2010,08,30,03,12,6.80
2010,08,30,03,13,6.80
2010,08,30,03,14,6.80
2010,08,30,03,15,6.80
2010,08,30,03,16,6.80
2010,08,30,03,17,6.80
2010,08,30,03,18,6.80
2010,08,30,03,19,6.80
2010,08,30,03,20,6.80
2010,08,30,03,21,6.80
2010,08,30,03,22,6.80
2010,08,30,03,23,6.80
2010,08,30,03,24,6.80
2010,08,30,03,25,6.80
2010,08,30,03,26,6.80
2010,08,30,03,27,6.80
2010,08,30,03,28,6.80
2010,08,30,03,29,6.80
2010,08,30,03,30,6.80
2010,08,30,03,31,6.80
2010,08,30,03,32,6.80
2010,08,30,03,33,6.80
2010,08,30,03,34,6.80
2010,08,30,03,35,6.80
2010,08,30,03,36,6.80
2010,08,30,03,37,6.80
2010,08,30,03,38,6.80
2010,08,30,03,39,6.70
2010,08,30,03,40,6.70
2010,08,30,03,41,6.70
2010,08,30,03,42,6.70
2010,08,30,03,43,6.70
2010,08,30,03,44,6.70
2010,08,30,03,45,6.70
2010,08,30,03,46,6.70
2010,08,30,03,47,6.70
2010,08,30,03,48,6.70
2010,08,30,03,49,6.70
2010,08,30,03,50,6.70
2010,08,30,03,51,6.70
2010,08,30,03,52,6.70
2010,08,30,03,53,6.70
2010,08,30,03,54,6.70
2010,08,30,03,55,6.70
2010,08,30,03,56,6.70
2010,08,30,03,57,6.70
2010,08,30,03,58,6.70
2010,08,30,03,59,6.70
2010,08,30,04,00,6.70
2010,08,30,04,01,6.70
2010,08,30,04,02,6.70
2010,08,30,04,03,6.70
2010,08,30,04,04,6.70
2010,08,30,04,05,6.70
2010,08,30,04,06,6.70
2010,08,30,04,07,6.70
2010,08,30,04,08,6.70
2010,08,30,04,09,6.70
2010,08,30,04,10,6.70
2010,08,30,04,11,6.70
2010,08,30,04,12,6.70
2010,08,30,04,13,6.60
2010,08,30,04,14,6.60
2010,08,30,04,15,6.60
2010,08,30,04,16,6.60
2010,08,30,04,17,6.60
2010,08,30,04,18,6.60
2010,08,30,04,19,6.60
2010,08,30,04,20,6.60
2010,08,30,04,21,6.60
2010,08,30,04,22,6.60
2010,08,30,04,23,6.60
2010,08,30,04,24,6.60
2010,08,30,04,25,6.70
2010,08,30,04,26,6.70
2010,08,30,04,27,6.70
2010,08,30,04,28,6.70
2010,08,30,04,29,6.70
2010,08,30,04,30,6.70
2010,08,30,04,31,6.70
2010,08,30,04,32,6.70
2010,08,30,04,33,6.70
2010,08,30,04,34,6.70
2010,08,30,04,35,6.60
2010,08,30,04,36,6.60
2010,08,30,04,37,6.60
2010,08,30,04,38,6.60
2010,08,30,04,39,6.60
2010,08,30,04,40,6.60
2010,08,30,04,41,6.60
2010,08,30,04,42,6.60
2010,08,30,04,43,6.60
2010,08,30,04,44,6.60
2010,08,30,04,45,6.60
2010,08,30,04,46,6.50
2010,08,30,04,47,6.50
2010,08,30,04,48,6.50
2010,08,30,04,49,6.40
2010,08,30,04,50,6.40
2010,08,30,04,51,6.40
2010,08,30,04,52,6.40
2010,08,30,04,53,6.40
2010,08,30,04,54,6.40
2010,08,30,04,55,6.40
2010,08,30,04,56,6.40
2010,08,30,04,57,6.40
2010,08,30,04,58,6.40
2010,08,30,04,59,6.40
2010,08,30,05,00,6.40
2010,08,30,05,01,6.40
2010,08,30,05,02,6.40
2010,08,30,05,03,6.40
2010,08,30,05,04,6.30
2010,08,30,05,05,6.30
2010,08,30,05,06,6.30
2010,08,30,05,07,6.30
2010,08,30,05,08,6.20
2010,08,30,05,09,6.20
2010,08,30,05,10,6.20
2010,08,30,05,11,6.20
2010,08,30,05,12,6.20
2010,08,30,05,13,6.20
2010,08,30,05,14,6.20
2010,08,30,05,15,6.20
2010,08,30,05,16,6.20
2010,08,30,05,17,6.20
2010,08,30,05,18,6.20
2010,08,30,05,19,6.20
2010,08,30,05,20,6.20
2010,08,30,05,21,6.20
2010,08,30,05,22,6.20
2010,08,30,05,23,6.20
2010,08,30,05,24,6.20
2010,08,30,05,25,6.20
2010,08,30,05,26,6.20
2010,08,30,05,27,6.20
2010,08,30,05,28,6.20
2010,08,30,05,29,6.20
2010,08,30,05,30,6.20
2010,08,30,05,31,6.20
2010,08,30,05,32,6.20
2010,08,30,05,33,6.20
2010,08,30,05,34,6.20
2010,08,30,05,35,6.20
2010,08,30,05,36,6.20
2010,08,30,05,37,6.20
2010,08,30,05,38,6.20
2010,08,30,05,39,6.20
2010,08,30,05,40,6.10
2010,08,30,05,41,6.10
2010,08,30,05,42,6.10
2010,08,30,05,43,6.10
2010,08,30,05,44,6.00
2010,08,30,05,45,6.00
2010,08,30,05,46,6.00
2010,08,30,05,47,6.00
2010,08,30,05,48,6.00
2010,08,30,05,49,6.00
2010,08,30,05,50,6.00
2010,08,30,05,51,6.00
2010,08,30,05,52,5.90
2010,08,30,05,53,5.90
2010,08,30,05,54,5.90
2010,08,30,05,55,5.90
2010,08,30,05,56,5.90
2010,08,30,05,57,5.90
2010,08,30,05,58,5.90
2010,08,30,05,59,5.90
2010,08,30,06,00,5.90
2010,08,30,06,01,5.80
2010,08,30,06,02,5.80
2010,08,30,06,03,5.80
2010,08,30,06,04,5.80
2010,08,30,06,05,5.80
2010,08,30,06,06,5.80
2010,08,30,06,07,5.80
2010,08,30,06,08,5.80
2010,08,30,06,09,5.80
2010,08,30,06,10,5.80
2010,08,30,06,11,5.80
2010,08,30,06,12,5.80
2010,08,30,06,13,5.70
2010,08,30,06,14,5.70
2010,08,30,06,15,5.70
2010,08,30,06,16,5.80
2010,08,30,06,17,5.80
2010,08,30,06,18,5.80
2010,08,30,06,19,5.80
2010,08,30,06,20,5.80
2010,08,30,06,21,5.80
2010,08,30,06,22,5.80
2010,08,30,06,23,5.80
2010,08,30,06,24,5.80
2010,08,30,06,25,5.80
2010,08,30,06,26,5.80
2010,08,30,06,27,5.80
2010,08,30,06,28,5.80
2010,08,30,06,29,5.80
2010,08,30,06,30,5.90
2010,08,30,06,31,5.90
2010,08,30,06,32,5.90
2010,08,30,06,33,5.90
2010,08,30,06,34,5.80
2010,08,30,06,35,5.80
2010,08,30,06,36,5.80
2010,08,30,06,37,5.80
2010,08,30,06,38,5.80
2010,08,30,06,39,5.80
2010,08,30,06,40,5.80
2010,08,30,06,41,5.80
2010,08,30,06,42,5.80
2010,08,30,06,43,5.80
2010,08,30,06,44,5.80
2010,08,30,06,45,5.80
2010,08,30,06,46,5.80
2010,08,30,06,47,5.80
2010,08,30,06,48,5.80
2010,08,30,06,49,5.80
2010,08,30,06,50,5.80
2010,08,30,06,51,5.80
2010,08,30,06,52,5.90
2010,08,30,06,53,5.90
2010,08,30,06,54,5.90
2010,08,30,06,55,5.90
2010,08,30,06,56,5.90
2010,08,30,06,57,5.90
2010,08,30,06,58,5.90
2010,08,30,06,59,5.90
2010,08,30,07,00,5.90
2010,08,30,07,01,5.90
2010,08,30,07,02,5.90
2010,08,30,07,03,5.90
2010,08,30,07,04,5.90
2010,08,30,07,05,5.90
2010,08,30,07,06,6.00
2010,08,30,07,07,6.00
2010,08,30,07,08,6.10
2010,08,30,07,09,6.10
2010,08,30,07,10,6.10
2010,08,30,07,11,6.10
2010,08,30,07,12,6.10
2010,08,30,07,13,6.20
2010,08,30,07,14,6.20
2010,08,30,07,15,6.20
2010,08,30,07,16,6.20
2010,08,30,07,17,6.20
2010,08,30,07,18,6.30
2010,08,30,07,19,6.30
2010,08,30,07,20,6.30
2010,08,30,07,21,6.30
2010,08,30,07,22,6.30
2010,08,30,07,23,6.40
2010,08,30,07,24,6.40
2010,08,30,07,25,6.40
2010,08,30,07,26,6.50
2010,08,30,07,27,6.50
2010,08,30,07,28,6.60
2010,08,30,07,29,6.60
2010,08,30,07,30,6.60
2010,08,30,07,31,6.70
2010,08,30,07,32,6.70
2010,08,30,07,33,6.80
2010,08,30,07,34,6.80
2010,08,30,07,35,6.90
2010,08,30,07,36,6.90
2010,08,30,07,37,7.00
2010,08,30,07,38,7.10
2010,08,30,07,39,7.10
2010,08,30,07,40,7.20
2010,08,30,07,41,7.20
2010,08,30,07,42,7.20
2010,08,30,07,43,7.30
2010,08,30,07,44,7.30
2010,08,30,07,45,7.40
2010,08,30,07,46,7.50
2010,08,30,07,47,7.60
2010,08,30,07,48,7.60
2010,08,30,07,49,7.70
2010,08,30,07,50,7.70
2010,08,30,07,51,7.80
2010,08,30,07,52,7.90
2010,08,30,07,53,8.00
2010,08,30,07,54,8.00
2010,08,30,07,55,8.10
2010,08,30,07,56,8.10
2010,08,30,07,57,8.20
2010,08,30,07,58,8.20
2010,08,30,07,59,8.30
2010,08,30,08,00,8.30
2010,08,30,08,01,8.40
2010,08,30,08,02,8.50
2010,08,30,08,03,8.50
2010,08,30,08,04,8.60
2010,08,30,08,05,8.70
2010,08,30,08,06,8.80
2010,08,30,08,07,8.80
2010,08,30,08,08,8.90
2010,08,30,08,09,8.90
2010,08,30,08,10,9.00
2010,08,30,08,11,9.10
2010,08,30,08,12,9.10
2010,08,30,08,13,9.20
2010,08,30,08,14,9.30
2010,08,30,08,15,9.30
2010,08,30,08,16,9.40
2010,08,30,08,17,9.50
2010,08,30,08,18,9.60
2010,08,30,08,19,9.70
2010,08,30,08,20,9.80
2010,08,30,08,21,9.80
2010,08,30,08,22,9.90
2010,08,30,08,23,10.00
2010,08,30,08,24,10.20
2010,08,30,08,25,10.30
2010,08,30,08,26,10.30
2010,08,30,08,27,10.50
2010,08,30,08,28,10.50
2010,08,30,08,29,10.70
2010,08,30,08,30,10.80
2010,08,30,08,31,10.90
2010,08,30,08,32,11.00
2010,08,30,08,33,11.10
2010,08,30,08,34,11.20
2010,08,30,08,35,11.40
2010,08,30,08,36,11.50
2010,08,30,08,37,11.70
2010,08,30,08,38,11.90
2010,08,30,08,39,12.00
2010,08,30,08,40,12.20
2010,08,30,08,41,12.40
2010,08,30,08,42,12.50
2010,08,30,08,43,12.60
2010,08,30,08,44,12.80
2010,08,30,08,45,12.90
2010,08,30,08,46,13.00
2010,08,30,08,47,13.10
2010,08,30,08,48,13.20
2010,08,30,08,49,13.40
2010,08,30,08,50,13.50
2010,08,30,08,51,13.60
2010,08,30,08,52,13.70
2010,08,30,08,53,13.90
2010,08,30,08,54,14.00
2010,08,30,08,55,14.10
2010,08,30,08,56,14.20
2010,08,30,08,57,14.40
2010,08,30,08,58,14.50
2010,08,30,08,59,14.60
2010,08,30,09,00,14.60
2010,08,30,09,01,14.70
2010,08,30,09,02,14.80
2010,08,30,09,03,14.90
2010,08,30,09,04,14.90
2010,08,30,09,05,15.00
2010,08,30,09,06,15.00
2010,08,30,09,07,15.00
2010,08,30,09,08,15.20
2010,08,30,09,09,15.30
2010,08,30,09,10,15.30
2010,08,30,09,11,15.40
2010,08,30,09,12,15.40
2010,08,30,09,13,15.50
2010,08,30,09,14,15.60
2010,08,30,09,15,15.60
2010,08,30,09,16,15.60
2010,08,30,09,17,15.70
2010,08,30,09,18,15.70
2010,08,30,09,19,15.80
2010,08,30,09,20,15.90
2010,08,30,09,21,15.90
2010,08,30,09,22,16.00
2010,08,30,09,23,16.00
2010,08,30,09,24,16.10
2010,08,30,09,25,16.20
2010,08,30,09,26,16.20
2010,08,30,09,27,16.30
2010,08,30,09,28,16.40
2010,08,30,09,29,16.40
2010,08,30,09,30,16.50
2010,08,30,09,31,16.50
2010,08,30,09,32,16.50
2010,08,30,09,33,16.50
2010,08,30,09,34,16.50
2010,08,30,09,35,16.50
2010,08,30,09,36,16.50
2010,08,30,09,37,16.50
2010,08,30,09,38,16.50
2010,08,30,09,39,16.50
2010,08,30,09,40,16.50
2010,08,30,09,41,16.40
2010,08,30,09,42,16.50
2010,08,30,09,43,16.60
2010,08,30,09,44,16.80
2010,08,30,09,45,16.80
2010,08,30,09,46,16.90
2010,08,30,09,47,16.90
2010,08,30,09,48,17.00
2010,08,30,09,49,17.00
2010,08,30,09,50,17.00
2010,08,30,09,51,17.00
2010,08,30,09,52,17.10
2010,08,30,09,53,17.10
2010,08,30,09,54,17.20
2010,08,30,09,55,17.20
2010,08,30,09,56,17.30
2010,08,30,09,57,17.30
2010,08,30,09,58,17.40
2010,08,30,09,59,17.40
2010,08,30,10,00,17.40
2010,08,30,10,01,17.50
2010,08,30,10,02,17.40
2010,08,30,10,03,17.50
2010,08,30,10,04,17.60
2010,08,30,10,05,17.70
2010,08,30,10,06,17.70
2010,08,30,10,07,17.80
2010,08,30,10,08,17.90
2010,08,30,10,09,18.00
2010,08,30,10,10,18.10
2010,08,30,10,11,18.20
2010,08,30,10,12,18.30
2010,08,30,10,13,18.30
2010,08,30,10,14,18.30
2010,08,30,10,15,18.30
2010,08,30,10,16,18.40
2010,08,30,10,17,18.40
2010,08,30,10,18,18.40
2010,08,30,10,19,18.40
2010,08,30,10,20,18.40
2010,08,30,10,21,18.50
2010,08,30,10,22,18.50
2010,08,30,10,23,18.50
2010,08,30,10,24,18.60
2010,08,30,10,25,18.60
2010,08,30,10,26,18.60
2010,08,30,10,27,18.60
2010,08,30,10,28,18.70
2010,08,30,10,29,18.70
2010,08,30,10,30,18.70
2010,08,30,10,31,18.70
2010,08,30,10,32,18.60
2010,08,30,10,33,18.60
2010,08,30,10,34,18.50
2010,08,30,10,35,18.40
2010,08,30,10,36,18.40
2010,08,30,10,37,18.50
2010,08,30,10,38,18.50
2010,08,30,10,39,18.50
2010,08,30,10,40,18.50
2010,08,30,10,41,18.50
2010,08,30,10,42,18.40
2010,08,30,10,43,18.30
2010,08,30,10,44,18.20
2010,08,30,10,45,18.20
2010,08,30,10,46,18.20
2010,08,30,10,47,18.20
2010,08,30,10,48,18.20
2010,08,30,10,49,18.20
2010,08,30,10,50,18.20
2010,08,30,10,51,18.20
2010,08,30,10,52,18.20
2010,08,30,10,53,18.20
2010,08,30,10,54,18.20
2010,08,30,10,55,18.30
2010,08,30,10,56,18.30
2010,08,30,10,57,18.30
2010,08,30,10,58,18.30
2010,08,30,10,59,18.40
2010,08,30,11,00,18.50
2010,08,30,11,01,18.60
2010,08,30,11,02,18.70
2010,08,30,11,03,18.70
2010,08,30,11,04,18.70
2010,08,30,11,05,18.60
2010,08,30,11,06,18.60
2010,08,30,11,07,18.60
2010,08,30,11,08,18.60
2010,08,30,11,09,18.60
2010,08,30,11,10,18.50
2010,08,30,11,11,18.60
2010,08,30,11,12,18.60
2010,08,30,11,13,18.70
2010,08,30,11,14,18.70
2010,08,30,11,15,18.70
2010,08,30,11,16,18.70
2010,08,30,11,17,18.70
2010,08,30,11,18,18.60
2010,08,30,11,19,18.70
2010,08,30,11,20,18.70
2010,08,30,11,21,18.70
2010,08,30,11,22,18.80
2010,08,30,11,23,18.80
2010,08,30,11,24,18.70
2010,08,30,11,25,18.70
2010,08,30,11,26,18.60
2010,08,30,11,27,18.60
2010,08,30,11,28,18.70
2010,08,30,11,29,18.80
2010,08,30,11,30,18.80
2010,08,30,11,31,18.80
2010,08,30,11,32,18.80
2010,08,30,11,33,18.80
2010,08,30,11,34,18.80
2010,08,30,11,35,18.80
2010,08,30,11,36,18.80
2010,08,30,11,37,18.90
2010,08,30,11,38,19.00
2010,08,30,11,39,19.00
2010,08,30,11,40,19.00
2010,08,30,11,41,19.00
2010,08,30,11,42,18.90
2010,08,30,11,43,18.90
2010,08,30,11,44,18.90
2010,08,30,11,45,18.90
2010,08,30,11,46,18.90
2010,08,30,11,47,18.90
2010,08,30,11,48,19.00
2010,08,30,11,49,19.10
2010,08,30,11,50,19.20
2010,08,30,11,51,19.30
2010,08,30,11,52,19.40
2010,08,30,11,53,19.50
2010,08,30,11,54,19.60
2010,08,30,11,55,19.60
2010,08,30,11,56,19.60
2010,08,30,11,57,19.50
2010,08,30,11,58,19.40
2010,08,30,11,59,19.40
2010,08,30,12,00,19.40
2010,08,30,12,01,19.50
2010,08,30,12,02,19.50
2010,08,30,12,03,19.50
2010,08,30,12,04,19.50
2010,08,30,12,05,19.60
2010,08,30,12,06,19.80
2010,08,30,12,07,19.90
2010,08,30,12,08,19.90
2010,08,30,12,09,20.00
2010,08,30,12,10,20.00
2010,08,30,12,11,19.90
2010,08,30,12,12,19.80
2010,08,30,12,13,19.80
2010,08,30,12,14,19.70
2010,08,30,12,15,19.70
2010,08,30,12,16,19.70
2010,08,30,12,17,19.70
2010,08,30,12,18,19.60
2010,08,30,12,19,19.60
2010,08,30,12,20,19.50
2010,08,30,12,21,19.40
2010,08,30,12,22,19.30
2010,08,30,12,23,19.30
2010,08,30,12,24,19.30
2010,08,30,12,25,19.40
2010,08,30,12,26,19.40
2010,08,30,12,27,19.40
2010,08,30,12,28,19.50
2010,08,30,12,29,19.60
2010,08,30,12,30,19.50
2010,08,30,12,31,19.40
2010,08,30,12,32,19.20
2010,08,30,12,33,19.20
2010,08,30,12,34,19.30
2010,08,30,12,35,19.40
2010,08,30,12,36,19.60
2010,08,30,12,37,19.80
2010,08,30,12,38,19.90
2010,08,30,12,39,19.90
2010,08,30,12,40,20.00
2010,08,30,12,41,20.10
2010,08,30,12,42,20.20
2010,08,30,12,43,20.20
2010,08,30,12,44,20.20
2010,08,30,12,45,20.20
2010,08,30,12,46,20.20
2010,08,30,12,47,20.30
2010,08,30,12,48,20.30
2010,08,30,12,49,20.30
2010,08,30,12,50,20.30
2010,08,30,12,51,20.40
2010,08,30,12,52,20.40
2010,08,30,12,53,20.30
2010,08,30,12,54,20.30
2010,08,30,12,55,20.20
2010,08,30,12,56,20.10
2010,08,30,12,57,20.10
2010,08,30,12,58,20.10
2010,08,30,12,59,20.10
2010,08,30,13,00,20.10
2010,08,30,13,01,20.10
2010,08,30,13,02,20.00
2010,08,30,13,03,20.00
2010,08,30,13,04,20.00
2010,08,30,13,05,19.90
2010,08,30,13,06,19.90
2010,08,30,13,07,19.90
2010,08,30,13,08,19.90
2010,08,30,13,09,19.90
2010,08,30,13,10,19.80
2010,08,30,13,11,19.80
2010,08,30,13,12,19.80
2010,08,30,13,13,19.80
2010,08,30,13,14,19.90
2010,08,30,13,15,20.00
2010,08,30,13,16,20.10
2010,08,30,13,17,20.10
2010,08,30,13,18,20.20
2010,08,30,13,19,20.30
2010,08,30,13,20,20.30
2010,08,30,13,21,20.30
2010,08,30,13,22,20.30
2010,08,30,13,23,20.30
2010,08,30,13,24,20.30
2010,08,30,13,25,20.30
2010,08,30,13,26,20.30
2010,08,30,13,27,20.30
2010,08,30,13,28,20.30
2010,08,30,13,29,20.20
2010,08,30,13,30,20.10
2010,08,30,13,31,20.10
2010,08,30,13,32,20.10
2010,08,30,13,33,20.20
2010,08,30,13,34,20.30
2010,08,30,13,35,20.40
2010,08,30,13,36,20.50
2010,08,30,13,37,20.50
2010,08,30,13,38,20.50
2010,08,30,13,39,20.50
2010,08,30,13,40,20.50
2010,08,30,13,41,20.50
2010,08,30,13,42,20.50
2010,08,30,13,43,20.50
2010,08,30,13,44,20.50
2010,08,30,13,45,20.50
2010,08,30,13,46,20.50
2010,08,30,13,47,20.60
2010,08,30,13,48,20.60
2010,08,30,13,49,20.60
2010,08,30,13,50,20.70
2010,08,30,13,51,20.70
2010,08,30,13,52,20.70
2010,08,30,13,53,20.80
2010,08,30,13,54,20.80
2010,08,30,13,55,20.80
2010,08,30,13,56,20.80
2010,08,30,13,57,20.80
2010,08,30,13,58,20.90
2010,08,30,13,59,21.10
2010,08,30,14,00,21.10
2010,08,30,14,01,21.10
2010,08,30,14,02,21.10
2010,08,30,14,03,21.20
2010,08,30,14,04,21.20
2010,08,30,14,05,21.20
2010,08,30,14,06,21.20
2010,08,30,14,07,21.10
2010,08,30,14,08,21.00
2010,08,30,14,09,20.90
2010,08,30,14,10,20.80
2010,08,30,14,11,20.80
2010,08,30,14,12,20.70
2010,08,30,14,13,20.60
2010,08,30,14,14,20.40
2010,08,30,14,15,20.10
2010,08,30,14,16,19.90
2010,08,30,14,17,19.70
2010,08,30,14,18,19.60
2010,08,30,14,19,19.60
2010,08,30,14,20,19.50
2010,08,30,14,21,19.60
2010,08,30,14,22,19.60
2010,08,30,14,23,19.70
2010,08,30,14,24,19.70
2010,08,30,14,25,19.70
2010,08,30,14,26,19.70
2010,08,30,14,27,19.80
2010,08,30,14,28,19.90
2010,08,30,14,29,20.00
2010,08,30,14,30,20.00
2010,08,30,14,31,20.10
2010,08,30,14,32,20.10
2010,08,30,14,33,20.10
2010,08,30,14,34,20.10
2010,08,30,14,35,20.10
2010,08,30,14,36,20.10
2010,08,30,14,37,20.10
2010,08,30,14,38,20.20
2010,08,30,14,39,20.30
2010,08,30,14,40,20.30
2010,08,30,14,41,20.50
2010,08,30,14,42,20.60
2010,08,30,14,43,20.60
2010,08,30,14,44,20.60
2010,08,30,14,45,20.50
2010,08,30,14,46,20.50
2010,08,30,14,47,20.60
2010,08,30,14,48,20.60
2010,08,30,14,49,20.70
2010,08,30,14,50,20.90
2010,08,30,14,51,21.00
2010,08,30,14,52,21.10
2010,08,30,14,53,21.10
2010,08,30,14,54,21.20
2010,08,30,14,55,21.10
2010,08,30,14,56,20.90
2010,08,30,14,57,20.80
2010,08,30,14,58,20.80
2010,08,30,14,59,20.80
2010,08,30,15,00,21.00
2010,08,30,15,01,21.10
2010,08,30,15,02,21.20
2010,08,30,15,03,21.30
2010,08,30,15,04,21.30
2010,08,30,15,05,21.40
2010,08,30,15,06,21.50
2010,08,30,15,07,21.60
2010,08,30,15,08,21.50
2010,08,30,15,09,21.50
2010,08,30,15,10,21.40
2010,08,30,15,11,21.40
2010,08,30,15,12,21.20
2010,08,30,15,13,21.00
2010,08,30,15,14,20.90
2010,08,30,15,15,20.90
2010,08,30,15,16,20.90
2010,08,30,15,17,20.90
2010,08,30,15,18,21.00
2010,08,30,15,19,21.00
2010,08,30,15,20,21.00
2010,08,30,15,21,21.10
2010,08,30,15,22,21.20
2010,08,30,15,23,21.10
2010,08,30,15,24,21.10
2010,08,30,15,25,21.10
2010,08,30,15,26,21.10
2010,08,30,15,27,21.00
2010,08,30,15,28,20.90
2010,08,30,15,29,20.70
2010,08,30,15,30,20.70
2010,08,30,15,31,20.70
2010,08,30,15,32,20.60
2010,08,30,15,33,20.60
2010,08,30,15,34,20.50
2010,08,30,15,35,20.50
2010,08,30,15,36,20.50
2010,08,30,15,37,20.60
2010,08,30,15,38,20.70
2010,08,30,15,39,20.80
2010,08,30,15,40,20.80
2010,08,30,15,41,20.80
2010,08,30,15,42,20.70
2010,08,30,15,43,20.80
2010,08,30,15,44,20.80
2010,08,30,15,45,20.80
2010,08,30,15,46,20.80
2010,08,30,15,47,20.80
2010,08,30,15,48,20.70
2010,08,30,15,49,20.60
2010,08,30,15,50,20.60
2010,08,30,15,51,20.50
2010,08,30,15,52,20.60
2010,08,30,15,53,20.60
2010,08,30,15,54,20.50
2010,08,30,15,55,20.40
2010,08,30,15,56,20.30
2010,08,30,15,57,20.20
2010,08,30,15,58,20.30
2010,08,30,15,59,20.30
2010,08,30,16,00,20.20
2010,08,30,16,01,20.20
2010,08,30,16,02,20.20
2010,08,30,16,03,20.30
2010,08,30,16,04,20.30
2010,08,30,16,05,20.40
2010,08,30,16,06,20.50
2010,08,30,16,07,20.60
2010,08,30,16,08,20.70
2010,08,30,16,09,20.80
2010,08,30,16,10,20.90
2010,08,30,16,11,21.00
2010,08,30,16,12,21.10
2010,08,30,16,13,21.10
2010,08,30,16,14,21.20
2010,08,30,16,15,21.30
2010,08,30,16,16,21.40
2010,08,30,16,17,21.50
2010,08,30,16,18,21.60
2010,08,30,16,19,21.70
2010,08,30,16,20,21.60
2010,08,30,16,21,21.50
2010,08,30,16,22,21.40
2010,08,30,16,23,21.20
2010,08,30,16,24,21.10
2010,08,30,16,25,21.00
2010,08,30,16,26,20.90
2010,08,30,16,27,20.90
2010,08,30,16,28,20.80
2010,08,30,16,29,20.90
2010,08,30,16,30,20.90
2010,08,30,16,31,21.00
2010,08,30,16,32,21.10
2010,08,30,16,33,21.20
2010,08,30,16,34,21.10
2010,08,30,16,35,21.10
2010,08,30,16,36,21.10
2010,08,30,16,37,21.10
2010,08,30,16,38,21.20
2010,08,30,16,39,21.20
2010,08,30,16,40,21.30
2010,08,30,16,41,21.30
2010,08,30,16,42,21.30
2010,08,30,16,43,21.20
2010,08,30,16,44,21.10
2010,08,30,16,45,21.10
2010,08,30,16,46,21.00
2010,08,30,16,47,21.00
2010,08,30,16,48,20.90
2010,08,30,16,49,20.80
2010,08,30,16,50,20.70
2010,08,30,16,51,20.70
2010,08,30,16,52,20.70
2010,08,30,16,53,20.70
2010,08,30,16,54,20.70
2010,08,30,16,55,20.80
2010,08,30,16,56,20.80
2010,08,30,16,57,20.90
2010,08,30,16,58,20.90
2010,08,30,16,59,20.90
2010,08,30,17,00,21.00
2010,08,30,17,01,21.10
2010,08,30,17,02,21.10
2010,08,30,17,03,21.10
2010,08,30,17,04,21.10
2010,08,30,17,05,21.10
2010,08,30,17,06,21.20
2010,08,30,17,07,21.20
2010,08,30,17,08,21.30
2010,08,30,17,09,21.20
2010,08,30,17,10,21.10
2010,08,30,17,11,21.00
2010,08,30,17,12,20.90
2010,08,30,17,13,20.80
2010,08,30,17,14,20.70
2010,08,30,17,15,20.70
2010,08,30,17,16,20.60
2010,08,30,17,17,20.60
2010,08,30,17,18,20.60
2010,08,30,17,19,20.60
2010,08,30,17,20,20.60
2010,08,30,17,21,20.80
2010,08,30,17,22,20.80
2010,08,30,17,23,20.90
2010,08,30,17,24,20.90
2010,08,30,17,25,21.00
2010,08,30,17,26,20.90
2010,08,30,17,27,20.80
2010,08,30,17,28,20.80
2010,08,30,17,29,20.80
2010,08,30,17,30,20.70
2010,08,30,17,31,20.60
2010,08,30,17,32,20.50
2010,08,30,17,33,20.50
2010,08,30,17,34,20.50
2010,08,30,17,35,20.50
2010,08,30,17,36,20.50
2010,08,30,17,37,20.40
2010,08,30,17,38,20.40
2010,08,30,17,39,20.30
2010,08,30,17,40,20.30
2010,08,30,17,41,20.30
2010,08,30,17,42,20.30
2010,08,30,17,43,20.30
2010,08,30,17,44,20.30